View from above orbital plane
|
View from above satellite
|
Ground track
|
The orbit data is extracted from the following two-line orbital elements,
1 18152U 87055A 21058.48385875 .00000913 00000-0 59700-4 0 9994
2 18152 82.4948 59.2909 0012146 281.9482 78.0383 15.06553980811917
Epoch (UTC): | 27 February 2021 11:36:45 |
Eccentricity: | 0.0012146 |
inclination: | 82.4948° |
perigee height: | 538 km |
apogee height: | 555 km |
right ascension of ascending node: | 59.2909° |
argument of perigee: | 281.9482° |
revolutions per day: | 15.06553980 |
mean anomaly at epoch: | 78.0383° |
orbit number at epoch: | 81191 |
The dashed part of the orbit path shows where the satellite is in the earth's shadow,
|
|